Miscellaneous Local Product
Issued by NWS North Platte, NE

Home | Current Version | Previous Version | Text Only | Print | Product List | Glossary On
Versions: 1 2 3 4 5 6 7 8 9 10 11 12 13 14 15 16 17 18 19 20 21 22 23 24 25 26 27 28 29 30 31 32 33 34 35 36 37 38 39 40 41 42 43 44 45 46 47 48 49 50
000
AXUS43 KLBF 200310
MISLBF


WESTERN AND NORTH CENTRAL NEBRASKA HOURLY WEATHER ROUNDUP
NATIONAL WEATHER SERVICE NORTH PLATTE NE
1000 PM CDT TUE AUG 19 2014

***STATIONS NOT REPORTING VARIABLES SUCH AS SKY/WEATHER OR
PRESSURE ARE PROVIDED BY THE NEBRASKA DEPARTMENT OF
ROADS...RAWS...AND APRS NETWORKS...AND ARE NOT UNDER
NATIONAL WEATHER SERVICE QUALITY CONTROL***

...OBSERVATIONS IN AND NEAR THE EASTERN PANHANDLE OF NEBRASKA...

CITY           SKY/WX    TMP DP  RH WIND       PRES   REMARKS
PINE RIDGE     LGT RAIN  70  61  73 CALM      29.79S
CHADRON        PTCLDY    81  47  30 S21       29.73R
ALLIANCE       MOCLDY    72  51  47 E12       29.80F
SIDNEY         LGT RAIN  66  58  75 S20       29.89F
WHITECLAY        N/A     73  58  59 E5          N/A
RUSHVILLE        N/A     80  46  29 SW18        N/A
GORDON           N/A     87  58  37 E6          N/A
CRESCENT LAKE    N/A     71  54  55 NE9G25      N/A
LISCO            N/A     76  54  46 SE13        N/A
BIG SPRINGS      N/A     75  66  75 CALM        N/A
$$

...OBSERVATIONS IN NORTH CENTRAL NEBRASKA...

CITY           SKY/WX    TMP DP  RH WIND       PRES   REMARKS
VALENTINE      CLOUDY    79  65  62 SE9       29.78R
THEDFORD       MOCLDY    76  66  73 SE5       29.81S
AINSWORTH      MOCLDY    74  66  74 SE9       29.80S
O`NEILL        MOCLDY    75  68  79 SE7       29.82R
ORD            CLEAR     75  69  81 SE6       29.78R
BROKEN BOW     PTCLDY    75  70  84 SE7       29.79S
BROWNLEE         N/A     77  68  73 E9          N/A
SPRINGVIEW       N/A     75  66  75 E3          N/A
ROSE             N/A     78  73  83 E9          N/A
NEWPORT          N/A     73  70  88 E8          N/A
SARGENT          N/A     74  70  87 CALM        N/A
COMSTOCK         N/A     80  77  90 E6          N/A
CHAMBERS         N/A     73  66  80 E3          N/A
EWING            N/A     72  67  84 CALM        N/A
$$

...OBSERVATIONS IN SOUTHWEST NEBRASKA AND FAR NORTHEAST COLORADO...

CITY           SKY/WX    TMP DP  RH WIND       PRES   REMARKS
WRAY           LGT RAIN  68  61  79 N8        29.83F
IMPERIAL       TSTM      70  60  70 W25G39    29.85R
OGALLALA       CLOUDY    77  61  57 S6        29.81R
NORTH PLATTE   CLOUDY    75  68  78 E9        29.78R
MCCOOK         PTCLDY    85  59  41 S10       29.76R
LEXINGTON      MOCLDY    79  67  67 SE12      29.78S
PAXTON           N/A     77  64  64 CALM        N/A
SUTHERLAND       N/A     78  74  87 E7          N/A
BRADY            N/A     75  68  79 N3          N/A
GOTHENBURG       N/A     76  66  71 E6          N/A
CALLAWAY         N/A     74  68  81 E12         N/A
$$

...SOME WEATHER OBSERVATIONS FROM AROUND THE REGION...

CITY           SKY/WX    TMP DP  RH WIND       PRES   REMARKS
DENVER         MOCLDY    67  55  65 SW9       29.93S
LARAMIE        CLOUDY    63  44  50 SW25G31   30.10R
CHEYENNE       MOCLDY    63  50  62 SW9       29.99R
SCOTTSBLUFF    MOCLDY    69  57  65 SE6       29.82S
RAPID CITY     MOCLDY    72  60  66 E7        29.75R
PIERRE         MOCLDY    76  61  59 SE12      29.72S
WINNER         FAIR      75  65  70 SE10      29.77R
SIOUX FALLS    PTCLDY    74  63  68 CALM      29.82R
OMAHA          MOCLDY    79  64  60 S5        29.80R
GRAND ISLAND   CLEAR     76  69  79 E6        29.80R
KANSAS CITY    CLEAR     83  71  67 SE9       29.81R
WICHITA        PTCLDY    82  67  60 S12       29.82R
HAYS           PTCLDY    81  61  50 S12       29.79R
LIBERAL        CLEAR     81  57  44 S10       29.87R
GOODLAND       CLOUDY    79  52  38 S7        29.85R
$$



USA.gov is the U.S. government's official web portal to all federal, state and local government web resources and services.